• In Czech Republic
  • List of Countries
  • For 7 days
  • Water Temperature
  • Satellite Maps
  • Weather Map
  • Weather Widgets
  • user-avatar
    Login

    Hourly Weather Klajpedka

    Today, 22 April, Sunday

    Time Temperature Precipitation Wind Pressure Humidity
    00:00 +4°C° 0 mm 3 mps 737 mmHg 80%
    01:00 +4°C° 0 mm 3 mps 737 mmHg 81%
    02:00 +3°C° 0 mm 3 mps 736 mmHg 83%
    03:00 +3°C° 0 mm 3 mps 736 mmHg 85%
    04:00 +3°C° 0 mm 3 mps 736 mmHg 87%
    05:00 +2°C° 0 mm 3 mps 736 mmHg 89%
    06:00 +4°C° 0 mm 3 mps 736 mmHg 84%
    07:00 +5°C° 0 mm 4 mps 736 mmHg 78%
    08:00 +7°C° 0 mm 4 mps 736 mmHg 73%
    09:00 +8°C° 0 mm 4 mps 736 mmHg 66%
    10:00 +10°C° 0 mm 5 mps 736 mmHg 59%
    11:00 +13°C° 0 mm 5 mps 736 mmHg 52%
    12:00 +14°C° 0 mm 6 mps 736 mmHg 50%
    13:00 +14°C° 0 mm 6 mps 736 mmHg 48%
    14:00 +15°C° 0 mm 6 mps 736 mmHg 46%
    15:00 +14°C° 0 mm 6 mps 736 mmHg 47%
    16:00 +14°C° 0 mm 6 mps 736 mmHg 48%
    17:00 +13°C° 0 mm 5 mps 737 mmHg 49%
    18:00 +12°C° 0 mm 5 mps 737 mmHg 56%
    19:00 +10°C° 0 mm 4 mps 737 mmHg 62%
    20:00 +8°C° 0 mm 3 mps 737 mmHg 68%
    21:00 +7°C° 0 mm 3 mps 737 mmHg 70%
    22:00 +6°C° 0 mm 2 mps 737 mmHg 73%
    23:00 +5°C° 0 mm 2 mps 737 mmHg 75%

    Tomorrow, 23 April, Monday

    Time Temperature Precipitation Wind Pressure Humidity
    00:00 +4°C° 0 mm 2 mps 738 mmHg 77%
    01:00 +5°C° 0 mm 1 mps 738 mmHg 79%
    02:00 +5°C° 0 mm 1 mps 738 mmHg 81%
    03:00 +4°C° 0 mm 1 mps 738 mmHg 82%
    04:00 +4°C° 0 mm 1 mps 738 mmHg 83%
    05:00 +4°C° 0 mm 1 mps 737 mmHg 85%
    06:00 +5°C° 0 mm 1 mps 737 mmHg 79%
    07:00 +6°C° 0 mm 2 mps 738 mmHg 73%
    08:00 +7°C° 0 mm 2 mps 738 mmHg 67%
    09:00 +9°C° 0 mm 2 mps 737 mmHg 61%
    10:00 +11°C° 0 mm 3 mps 737 mmHg 55%
    11:00 +13°C° 0 mm 3 mps 737 mmHg 49%
    12:00 +14°C° 0 mm 3 mps 736 mmHg 46%
    13:00 +14°C° 0 mm 4 mps 736 mmHg 44%
    14:00 +15°C° 0 mm 4 mps 736 mmHg 41%
    15:00 +15°C° 0.1 mm 4 mps 735 mmHg 46%
    16:00 +14°C° 0.1 mm 3 mps 734 mmHg 51%
    17:00 +14°C° 0.1 mm 3 mps 734 mmHg 56%
    18:00 +12°C° 0.3 mm 3 mps 734 mmHg 65%
    19:00 +11°C° 0.3 mm 3 mps 733 mmHg 75%
    20:00 +10°C° 0.3 mm 3 mps 733 mmHg 84%
    21:00 +10°C° 0.1 mm 3 mps 733 mmHg 84%
    22:00 +10°C° 0.1 mm 3 mps 733 mmHg 85%
    23:00 +9°C° 0.1 mm 3 mps 733 mmHg 86%

    Day after tomorrow, 24 April, Tuesday

    Time Temperature Precipitation Wind Pressure Humidity
    00:00 +9°C° 0.1 mm 3 mps 733 mmHg 88%
    01:00 +8°C° 0.1 mm 3 mps 733 mmHg 90%
    02:00 +7°C° 0.1 mm 3 mps 733 mmHg 92%
    03:00 +7°C° 0 mm 3 mps 733 mmHg 93%
    04:00 +5°C° 0 mm 4 mps 733 mmHg 93%
    05:00 +4°C° 0 mm 4 mps 734 mmHg 94%
    06:00 +5°C° 0 mm 4 mps 734 mmHg 91%
    07:00 +6°C° 0 mm 5 mps 734 mmHg 87%
    08:00 +6°C° 0 mm 5 mps 734 mmHg 84%
    09:00 +7°C° 0 mm 5 mps 735 mmHg 82%
    10:00 +7°C° 0 mm 5 mps 735 mmHg 80%
    11:00 +7°C° 0 mm 5 mps 735 mmHg 79%
    12:00 +8°C° 0 mm 5 mps 735 mmHg 75%
    13:00 +9°C° 0 mm 5 mps 735 mmHg 71%
    14:00 +9°C° 0 mm 5 mps 735 mmHg 68%
    15:00 +10°C° 0 mm 5 mps 735 mmHg 66%
    16:00 +10°C° 0 mm 5 mps 735 mmHg 64%
    17:00 +12°C° 0 mm 5 mps 735 mmHg 63%
    18:00 +11°C° 0 mm 4 mps 735 mmHg 69%
    19:00 +10°C° 0 mm 3 mps 734 mmHg 74%
    20:00 +9°C° 0 mm 3 mps 734 mmHg 80%
    21:00 +9°C° 0.1 mm 3 mps 734 mmHg 82%
    22:00 +8°C° 0.1 mm 4 mps 734 mmHg 84%
    23:00 +8°C° 0.1 mm 4 mps 733 mmHg 86%

    25 April, Wednesday

    Time Temperature Precipitation Wind Pressure Humidity
    00:00 +8°C° 0.2 mm 4 mps 733 mmHg 88%
    01:00 +8°C° 0.2 mm 4 mps 733 mmHg 89%
    02:00 +8°C° 0.2 mm 4 mps 732 mmHg 90%
    03:00 +8°C° 0.2 mm 5 mps 732 mmHg 90%
    04:00 +8°C° 0.2 mm 5 mps 732 mmHg 91%
    05:00 +8°C° 0.2 mm 5 mps 732 mmHg 91%
    06:00 +8°C° 0 mm 5 mps 733 mmHg 89%
    07:00 +7°C° 0 mm 6 mps 733 mmHg 86%
    08:00 +7°C° 0 mm 6 mps 733 mmHg 84%
    09:00 +8°C° 0 mm 6 mps 733 mmHg 76%
    10:00 +10°C° 0 mm 6 mps 734 mmHg 68%
    11:00 +11°C° 0 mm 6 mps 734 mmHg 61%
    12:00 +10°C° 0.1 mm 5 mps 734 mmHg 62%
    13:00 +11°C° 0.1 mm 4 mps 733 mmHg 64%
    14:00 +10°C° 0.1 mm 4 mps 733 mmHg 65%
    15:00 +9°C° 0.9 mm 3 mps 733 mmHg 72%
    16:00 +8°C° 0.9 mm 2 mps 732 mmHg 78%
    17:00 +7°C° 0.9 mm 2 mps 731 mmHg 85%
    18:00 +7°C° 1.6 mm 2 mps 731 mmHg 88%
    19:00 +6°C° 1.6 mm 2 mps 731 mmHg 91%
    20:00 +7°C° 1.6 mm 1 mps 730 mmHg 93%
    21:00 +6°C° 0.9 mm 1 mps 730 mmHg 94%
    22:00 +5°C° 0.9 mm 2 mps 730 mmHg 94%
    23:00 +5°C° 0.9 mm 2 mps 730 mmHg 95%

    26 April, Thursday

    Time Temperature Precipitation Wind Pressure Humidity
    00:00 +5°C° 0.1 mm 2 mps 730 mmHg 94%
    01:00 +4°C° 0.1 mm 3 mps 730 mmHg 93%
    02:00 +4°C° 0.1 mm 3 mps 730 mmHg 93%
    03:00 +3°C° 0 mm 3 mps 731 mmHg 93%
    04:00 +3°C° 0 mm 3 mps 731 mmHg 94%
    05:00 +2°C° 0 mm 3 mps 732 mmHg 94%
    06:00 +3°C° 0 mm 3 mps 732 mmHg 90%
    07:00 +4°C° 0 mm 4 mps 733 mmHg 87%
    08:00 +5°C° 0 mm 4 mps 733 mmHg 83%
    09:00 +7°C° 0 mm 4 mps 734 mmHg 77%
    10:00 +10°C° 0 mm 4 mps 734 mmHg 71%
    11:00 +11°C° 0 mm 4 mps 734 mmHg 65%
    12:00 +12°C° 0.1 mm 4 mps 734 mmHg 62%
    13:00 +13°C° 0.1 mm 4 mps 734 mmHg 59%
    14:00 +13°C° 0.1 mm 5 mps 734 mmHg 55%
    15:00 +13°C° 0.1 mm 4 mps 734 mmHg 56%
    16:00 +13°C° 0.1 mm 4 mps 734 mmHg 56%
    17:00 +13°C° 0.1 mm 3 mps 734 mmHg 56%
    18:00 +12°C° 0.2 mm 3 mps 734 mmHg 63%
    19:00 +10°C° 0.2 mm 2 mps 734 mmHg 70%
    20:00 +9°C° 0.2 mm 2 mps 734 mmHg 77%
    21:00 +8°C° 0.1 mm 2 mps 734 mmHg 81%
    22:00 +8°C° 0.1 mm 2 mps 734 mmHg 84%
    23:00 +8°C° 0.1 mm 2 mps 734 mmHg 88%

    27 April, Friday

    Time Temperature Precipitation Wind Pressure Humidity
    00:00 +7°C° 0 mm 2 mps 734 mmHg 89%
    01:00 +7°C° 0 mm 3 mps 734 mmHg 90%
    02:00 +7°C° 0 mm 3 mps 734 mmHg 91%
    03:00 +5°C° 0 mm 3 mps 734 mmHg 92%
    04:00 +5°C° 0 mm 3 mps 734 mmHg 94%
    05:00 +4°C° 0 mm 3 mps 734 mmHg 95%
    06:00 +4°C° 0 mm 3 mps 735 mmHg 91%
    07:00 +5°C° 0 mm 3 mps 735 mmHg 87%
    08:00 +7°C° 0 mm 3 mps 735 mmHg 83%
    09:00 +7°C° 0 mm 4 mps 735 mmHg 76%
    10:00 +8°C° 0 mm 4 mps 736 mmHg 70%
    11:00 +11°C° 0 mm 4 mps 736 mmHg 63%
    12:00 +11°C° 0.1 mm 4 mps 736 mmHg 60%
    13:00 +12°C° 0.1 mm 4 mps 736 mmHg 57%
    14:00 +12°C° 0.1 mm 4 mps 736 mmHg 53%
    15:00 +12°C° 0.1 mm 4 mps 736 mmHg 54%
    16:00 +11°C° 0.1 mm 4 mps 736 mmHg 55%
    17:00 +11°C° 0.1 mm 4 mps 736 mmHg 56%
    18:00 +10°C° 0 mm 3 mps 736 mmHg 62%
    19:00 +8°C° 0 mm 2 mps 736 mmHg 68%
    20:00 +8°C° 0 mm 1 mps 736 mmHg 75%
    21:00 +7°C° 0 mm 1 mps 736 mmHg 77%
    22:00 +5°C° 0 mm 2 mps 737 mmHg 79%
    23:00 +5°C° 0 mm 2 mps 737 mmHg 81%
    Show more